COSMOS 249 DEB, 3606

Orbit data source: Space-Track

COSMOS 249 DEB, 3606 is space debris in LEO originally from a launch on Sun, 20 Oct 1968 UTC launched from the Tyuratam Missile And Space Complex (TTMTR). Debris objects in space refer to the collection of defunct objects orbiting the Earth. Examples of debris include non-operational satellites, rocket bodies, and fragments generated from explosions, collisions, or faulty payload assembly.

Loading next visibility...
Identifier
3606, 1968-091Y
Orbit
LEO
Country
Flag of CISCIS
Related business
Manufacturer
Unknown
Mission
Spacecraft
Bus & Motor
Unknown
Mass
Unknown
Launch date (UTC)
1968-10-20 (58 years ago)
Launch vehicle
Unknown
Launch site
Tyuratam Missile And Space Complex (TTMTR)
Object type
Payload
Rocket body
Debris
Shape & HBR
Unknown shape, 0.1 m
Radar Cross Section
Medium (>0.1 m² and <1 m²)

Expand to show TLE details & history
Last TLE update: 11 hours ago

TLE from 11 hours ago
0 COSMOS 249 DEB
1 03606U 68091Y   26236.12751032  .00000525  00000-0  50226-3 0  9999
2 03606  62.2565 295.1065 0729512 299.8438  53.1967 13.06162777693548
Epoch: 2026-08-24T03:03Z
TLE epoch observation values (Epoch: 2026-08-24T03:03:36.891Z)
Latitude
0.00003°
Longitude
-83.21087°
Altitude
934.558 km
Speed
7.531 km/s
True Right ascension
19h 40m 25s
True Declination
0° 00' 00"
Sunlit
Object was in full shadow at epoch
Visualization orbit readout
Latitude
Unknown
Longitude
Unknown
Altitude
Unknown
Speed
Unknown
Apparent Right ascension
Unknown
Apparent Declination
Unknown
Sunlit
N/A
Visualization observer readout
Local Sidereal Time
04:58:05
Azimuth
Unknown
Elevation
Unknown
Doppler factor
Unknown
Orbital elements
Apogee altitude
1,792.559 km
Perigee altitude
681.489 km
Semi-major axis
7,615.161 km
Eccentricity
0.07295
Inclination
62.2565°
RAAN
295.1065°
Arg. of periapsis
299.8438°
True anomaly
60.25799°
Mean anomaly
53.1967°
Eccentric anomaly
56.6898°
Mean motion
3.26606 °/min
Orbital period
110.22 mins
BSTAR
0.00050226
Loading maneuver chart data...
Computing Atmospheric mass density...
Loading historical data...
Loading historical data...
Loading historical data...
Loading historical data...
Loading historical data...
Loading historical data...
Loading historical data...

Documentation

Showing up to 5 results
|